Simultaneous Nadir Overpasses (SNOs) Predictions

Prediction of SNOs between LANDSAT-8 and METOP-A Satellite Orbit:

Table of predicted SNOs for the next 14.0 days since TLE Epoch: 4/21/2015
Index Date (LANDSAT-8) Time (LANDSAT-8) Lat,Lon (LANDSAT-8) SZA (LANDSAT-8 ) Date (METOP-A) Time (METOP-A) Lat,Lon (METOP-A) SZA (METOP-A ) Distance(km) Time Diff (sec)
1 04/22/2015 10:17:38 81.14, 65.11 71.08 04/22/2015 10:17:34 81.14, 65.19 71.09 1.29 4
2 04/22/2015 11:07:04 -81.16,-126.95 108.89 04/22/2015 11:08:14 -81.16,-127.06 108.88 2.11 70
3 04/25/2015 05:02:27 -81.11, -36.60 109.90 04/25/2015 05:01:15 -81.11, -36.51 109.92 1.62 72
4 04/25/2015 05:51:52 81.14, 131.46 70.15 04/25/2015 05:51:54 81.13, 131.32 70.13 2.48 2
5 04/25/2015 06:40:42 -81.76, -46.37 107.84 04/25/2015 06:41:56 -81.36, -46.10 107.99 44.61 74
6 04/28/2015 00:36:40 -81.12, 29.96 110.78 04/28/2015 00:35:34 -81.11, 29.91 110.81 1.07 66
7 04/28/2015 01:26:05 81.15,-161.99 69.28 04/28/2015 01:26:12 81.15,-161.89 69.29 1.79 7
8 04/30/2015 20:10:52 -81.12, 96.37 111.64 04/30/2015 20:09:52 -81.11, 96.23 111.69 2.39 60
9 04/30/2015 21:00:17 81.14, -95.61 68.41 04/30/2015 21:00:30 81.14, -95.58 68.42 0.54 13
10 05/03/2015 15:45:05 -81.10, 162.60 112.50 05/03/2015 15:44:11 -81.10, 162.45 112.54 2.65 54




NCC Satellite Simultaneous Nadir Overpasses (SNOs) Prediction Service
